Flag for Japan Weather past 2 weeks in Nagoya, Japan

Now
46 °F

Scattered showers. Passing clouds.


Feels Like: 39 °F
Forecast: 32 / 43 °F
Wind: 17 mph from Northwest

Location: Nagoya Airport

Current Time: Jan 30, 2015 at 9:35:31 PM

Latest Report: Jan 30, 2015 at 9:00 PM


Visibility: N/A

Pressure: 29.89 "Hg

Humidity: 71%

Dew point: 37 °F

Location of NagoyaLocation

Historic Weather in Nagoya — Graph

°F

Nagoya temperature yesterday

Maximum temperature yesterday: 43 °F (at 2:30 PM)
Minimum temperature yesterday: 32 °F (at 6:30 AM)
Average temperature yesterday: 39 °F

Past Weeks' High & Low Weather Summary

 TemperatureHumidityPressure
High52 °F (Jan 25, 2:00 PM)100% (Jan 22, 4:30 AM)30.36 "Hg (Jan 22, 4:30 AM)
Low32 °F (Jan 29, 6:30 AM)34% (Jan 21, 12:00 PM)29.56 "Hg (Jan 23, 12:00 AM)
Average44 °F69%30.07 "Hg
* Reported Jan 15 8:00 PM — Jan 30 8:30 PM, Nagoya, Weather by CustomWeather, © 2014

Note: Actual official high and low records may vary slightly from our data, if they occured in-between our weather recording intervals... More about our weather records

Advertising

Nagoya weather history for previous 24 hours

 ConditionsComfort  
Time TempWeatherWind HumidityBarometerVisibility
8:30 PM
Jan 30
45 °FPassing clouds.23 mph76%29.89 "HgN/A
8:00 PM45 °FPassing clouds.22 mph81%29.89 "HgN/A
7:30 PM45 °FPassing clouds.23 mph81%29.89 "HgN/A
7:00 PM45 °FPassing clouds.25 mph76%29.89 "HgN/A
6:30 PM45 °FPassing clouds.23 mph76%29.89 "HgN/A
6:00 PM45 °FPartly cloudy.18 mph81%29.89 "HgN/A
5:30 PM45 °FPartly cloudy.9 mph87%29.89 "HgN/A
5:00 PM45 °FBroken clouds.12 mph87%29.89 "HgN/A
4:30 PM45 °FPartly sunny.12 mph93%29.89 "HgN/A
4:00 PM45 °FBroken clouds.7 mph93%29.86 "HgN/A
3:30 PM43 °FPartly sunny.9 mph93%29.86 "HgN/A
3:00 PM45 °FLight rain. Partly sunny.13 mph93%29.86 "HgN/A
2:30 PM43 °FLight rain. Broken clouds.15 mph93%29.89 "Hg5 mi
2:00 PM43 °FLight rain. Partly sunny.17 mph93%29.89 "Hg5 mi
1:30 PM43 °FLight rain. Broken clouds.10 mph93%29.89 "Hg4 mi
1:00 PM43 °FLight rain. Broken clouds.13 mph93%29.92 "Hg5 mi
12:30 PM43 °FLight rain. Broken clouds.13 mph93%29.92 "Hg5 mi
12:00 PM41 °FLight rain. Broken clouds.13 mph93%29.95 "Hg4 mi
11:30 AM41 °FLight rain. Broken clouds.13 mph93%29.98 "Hg4 mi
11:00 AM41 °FLight rain. Broken clouds.12 mph93%30.01 "Hg4 mi
10:30 AM41 °FLight rain. Broken clouds.13 mph93%30.01 "Hg4 mi
10:00 AM41 °FLight rain. Fog.12 mph93%30.04 "Hg3 mi
9:30 AM41 °FLight rain. Fog.14 mph93%30.04 "Hg3 mi
9:00 AM39 °FSprinkles. Fog.14 mph100%30.04 "Hg3 mi
8:30 AM39 °FSprinkles. Fog.15 mph100%30.07 "Hg3 mi
8:00 AM39 °FSprinkles. Partly sunny.14 mph93%30.09 "Hg4 mi
7:30 AM39 °FSprinkles. Partly sunny.13 mph93%30.09 "Hg4 mi
7:00 AM39 °FSprinkles. Broken clouds.16 mph87%30.09 "Hg4 mi
6:30 AM39 °FSprinkles. Passing clouds.16 mph87%30.09 "Hg5 mi
6:00 AM39 °FSprinkles. Passing clouds.14 mph87%30.12 "HgN/A
5:30 AM39 °FSprinkles. Passing clouds.13 mph81%30.12 "HgN/A
5:00 AM39 °FSprinkles. Passing clouds.8 mph81%30.12 "HgN/A
4:30 AM39 °FSprinkles. Passing clouds.13 mph70%30.12 "HgN/A
4:00 AM41 °FSprinkles. Passing clouds.13 mph70%30.15 "HgN/A
3:30 AM41 °FSprinkles. Passing clouds.12 mph66%30.15 "HgN/A
3:00 AM41 °FSprinkles. Passing clouds.10 mph66%30.15 "HgN/A
2:30 AM41 °FSprinkles. Passing clouds.9 mph66%30.18 "HgN/A
2:00 AM41 °FSprinkles. Passing clouds.9 mph70%30.18 "HgN/A
1:30 AM41 °FSprinkles. Passing clouds.9 mph66%30.21 "HgN/A
1:00 AM41 °FSprinkles. Passing clouds.9 mph61%30.21 "HgN/A
12:30 AM41 °FPassing clouds.9 mph61%30.21 "HgN/A
12:00 AM41 °FPassing clouds.9 mph61%30.21 "HgN/A
11:30 PM
Jan 29
41 °FPassing clouds.9 mph61%30.24 "HgN/A
11:00 PM41 °FPassing clouds.9 mph61%30.24 "HgN/A
10:30 PM41 °FPartly cloudy.2 mph49%30.24 "HgN/A
10:00 PM41 °FPassing clouds.2 mph49%30.24 "HgN/A
9:30 PM43 °FPassing clouds.2 mph46%30.27 "HgN/A
9:00 PM43 °FPassing clouds.3 mph49%30.27 "HgN/A
Weather by CustomWeather, © 2014

See weather overviewHow to use our weather pages